Location: Boone Canyon
(38.3180°N, 119.2504°W)
Time: 17:58:56
(UTC+00:00)

SL-16 R/B - Pass Details

Date: 18 September 2020
Orbit: 842 x 846 km, 71.0° (Epoch: 19 October)

Event Time Altitude Azimuth Distance (km) Brightness Sun altitude
Exits shadow 13:08:17 - 223° (SW) 3,330 4.8 -7.4°
Reaches altitude 10° 13:10:44 10° 231° (SW) 2,456 4.1 -6.9°
Maximum altitude 13:15:58 39° 299° (WNW) 1,251 2.8 -5.9°
Drops below altitude 10° 13:21:15 10° 7° (N) 2,471 4.8 -4.9°
Sets 13:23:53 0° 16° (NNE) 3,411 5.7 -4.3°
